Pagrindinis puslapis
METAR-TAF:

METAR-TAF

Oro uostai :

Hemphill County Airport

Canadian, Teksasas, Jungtinės Amerikos Valstijos

platuma: 35-54N, ilguma: 100-24W, Aukštis: 730 m

Dabartinis oras

Ataskaita buvo paskelbta 33 minutes, ne 17:15 UTC
Vėjas 3 kt iš Pietų
Temperatūra 27°C
Drėgmė 42%
Slėgis 1021 hPa
Matomumas: 16.1 km
Giedras dangus

METAR: KHHF 031715Z AUTO 17003KT 10SM CLR 27/13 A3014 RMK AO2 T02680131

Laikas: 12:48 (17:48 UTC)


TAF: trūkstamas

Orai ataskaitas ir orų prognozės (METAR, TAF).

turimą stotys yra geltonos ir raudonos taškus žemėlapyje.

Perkelti pele per norėdami pamatyti stoties vardą.

Tada spustelėkite, norėdami matyti oro stebėjimo ir prognozės.

Norėdami pakeisti žemėlapį: spustelėkite ant žalios mygtukų su juodo kryžiaus žemyn,; žalią mygtuką su brūkšneliu, jei norite nutolinti; arba žalių rodyklių gretimoms žemėlapius.


METAR-TAF: